UAL154 PHNL-PKMJ

Flight info

Callsign UAL154
Flight time N/A
Altitude 30000
Route OPIHI3 CHOKO R584 MANRE/N0471F320 R584 MAZZA 10N177E EFAHU
Aircraft B738/M-SDE2E3FGHIRWXY/LB1

Departure

Time N/A
Airport Daniel K. Inouye International Airport (PHNL)

Arrival

Time 2026-05-05 13:56
Airport Marshall Islands International Airport (PKMJ)
Time Latitude Longitude Altitude Speed Heading
2026-05-05 10:52 17.05259 -169.02410 30057 ft 465 kts 246°
2026-05-05 10:52 17.03922 -169.05489 30054 ft 465 kts 246°
2026-05-05 10:53 17.01252 -169.11630 30059 ft 465 kts 246°
2026-05-05 10:53 16.98573 -169.17784 30063 ft 465 kts 246°
2026-05-05 10:54 16.95896 -169.23930 30063 ft 464 kts 246°
2026-05-05 10:54 16.93218 -169.30071 30062 ft 464 kts 246°
2026-05-05 10:55 16.90536 -169.36215 30063 ft 464 kts 246°
2026-05-05 10:55 16.87854 -169.42353 30053 ft 464 kts 246°
2026-05-05 10:56 16.85185 -169.48457 30060 ft 464 kts 246°
2026-05-05 10:56 16.82501 -169.54588 30049 ft 464 kts 246°
2026-05-05 10:57 16.79815 -169.60718 30054 ft 464 kts 246°
2026-05-05 10:57 16.77130 -169.66840 30053 ft 464 kts 246°
2026-05-05 10:58 16.74440 -169.72968 30058 ft 464 kts 246°
2026-05-05 10:58 16.71752 -169.79085 30055 ft 464 kts 246°
2026-05-05 10:59 16.69063 -169.85198 30057 ft 464 kts 246°
2026-05-05 10:59 16.66370 -169.91316 30055 ft 464 kts 246°
2026-05-05 11:00 16.63677 -169.97427 30061 ft 463 kts 246°
2026-05-05 11:00 16.61002 -170.03490 30058 ft 463 kts 246°
2026-05-05 11:01 16.58308 -170.09594 30055 ft 463 kts 246°
2026-05-05 11:01 16.55611 -170.15696 30058 ft 463 kts 246°
2026-05-05 11:02 16.52915 -170.21789 30049 ft 463 kts 246°
2026-05-05 11:02 16.50218 -170.27882 30051 ft 463 kts 246°
2026-05-05 11:03 16.47522 -170.33966 30052 ft 462 kts 246°
2026-05-05 11:03 16.44822 -170.40053 30041 ft 462 kts 246°
2026-05-05 11:04 16.42124 -170.46129 30045 ft 462 kts 246°
2026-05-05 11:04 16.39428 -170.52196 30050 ft 462 kts 246°
2026-05-05 11:05 16.36726 -170.58271 30064 ft 461 kts 246°
2026-05-05 11:05 16.34043 -170.64298 30045 ft 461 kts 246°
2026-05-05 11:06 16.31340 -170.70362 30049 ft 461 kts 246°
2026-05-05 11:06 16.28639 -170.76419 30046 ft 461 kts 246°
2026-05-05 11:07 16.25938 -170.82469 30046 ft 460 kts 246°
2026-05-05 11:07 16.23236 -170.88514 30046 ft 460 kts 245°
2026-05-05 11:08 16.20539 -170.94547 30049 ft 460 kts 245°
2026-05-05 11:08 16.17837 -171.00582 30049 ft 460 kts 245°
2026-05-05 11:09 16.15132 -171.06620 30044 ft 460 kts 246°
2026-05-05 11:09 16.12430 -171.12645 30036 ft 459 kts 245°
2026-05-05 11:10 16.09746 -171.18625 30048 ft 459 kts 245°
2026-05-05 11:10 16.07045 -171.24636 30037 ft 459 kts 246°
2026-05-05 11:11 16.04342 -171.30648 30036 ft 459 kts 246°
2026-05-05 11:11 16.01636 -171.36661 30037 ft 458 kts 246°
2026-05-05 11:12 15.98935 -171.42658 30033 ft 458 kts 246°
2026-05-05 11:12 15.96231 -171.48658 30038 ft 458 kts 246°
2026-05-05 11:13 15.93527 -171.54652 30060 ft 458 kts 246°
2026-05-05 11:13 15.92184 -171.57595 30343 ft 455 kts 245°
2026-05-05 11:13 15.90810 -171.60522 30816 ft 447 kts 245°
2026-05-05 11:13 15.89442 -171.63395 31337 ft 440 kts 245°
2026-05-05 11:14 15.88090 -171.66225 31779 ft 434 kts 245°
2026-05-05 11:14 15.86751 -171.69030 32012 ft 434 kts 245°
2026-05-05 11:14 15.85407 -171.71851 32022 ft 437 kts 245°
2026-05-05 11:15 15.82699 -171.77549 32042 ft 442 kts 245°
2026-05-05 11:15 15.79963 -171.83314 32040 ft 446 kts 245°
2026-05-05 11:16 15.77211 -171.89109 32036 ft 448 kts 245°
2026-05-05 11:16 15.74450 -171.94917 32030 ft 448 kts 245°
2026-05-05 11:17 15.71707 -172.00683 32029 ft 448 kts 245°
2026-05-05 11:17 15.68947 -172.06479 32028 ft 447 kts 245°
2026-05-05 11:18 15.66193 -172.12257 32029 ft 446 kts 245°
2026-05-05 11:18 15.63447 -172.18016 32029 ft 445 kts 245°
2026-05-05 11:19 15.60703 -172.23766 32030 ft 444 kts 245°
2026-05-05 11:19 15.57956 -172.29515 32028 ft 444 kts 245°
2026-05-05 11:20 15.55213 -172.35253 32028 ft 444 kts 245°
2026-05-05 11:20 15.52488 -172.40949 32024 ft 443 kts 245°
2026-05-05 11:21 15.49729 -172.46711 32029 ft 443 kts 245°
2026-05-05 11:21 15.47005 -172.52395 32028 ft 443 kts 245°
2026-05-05 11:22 15.44261 -172.58117 32024 ft 443 kts 245°
2026-05-05 11:22 15.41517 -172.63833 32022 ft 443 kts 245°
2026-05-05 11:23 15.38772 -172.69547 32022 ft 443 kts 245°
2026-05-05 11:23 15.36026 -172.75258 32022 ft 443 kts 245°
2026-05-05 11:24 15.33279 -172.80968 32022 ft 443 kts 245°
2026-05-05 11:24 15.30551 -172.86634 32021 ft 443 kts 245°
2026-05-05 11:25 15.27800 -172.92342 32023 ft 443 kts 245°
2026-05-05 11:25 15.25049 -172.98047 32017 ft 442 kts 245°
2026-05-05 11:26 15.22292 -173.03759 32020 ft 442 kts 245°
2026-05-05 11:26 15.19540 -173.09456 32019 ft 442 kts 245°
2026-05-05 11:27 15.16787 -173.15152 32019 ft 442 kts 245°
2026-05-05 11:27 15.14029 -173.20852 32018 ft 442 kts 245°
2026-05-05 11:28 15.11274 -173.26542 32017 ft 442 kts 245°
2026-05-05 11:28 15.08515 -173.32236 32015 ft 442 kts 245°
2026-05-05 11:29 15.05776 -173.37885 32015 ft 442 kts 245°
2026-05-05 11:29 15.03018 -173.43567 32013 ft 442 kts 245°
2026-05-05 11:30 15.00258 -173.49251 32014 ft 442 kts 245°
2026-05-05 11:30 14.97499 -173.54928 32013 ft 441 kts 245°
2026-05-05 11:31 14.94741 -173.60597 32017 ft 441 kts 245°
2026-05-05 11:31 14.91983 -173.66264 32013 ft 441 kts 245°
2026-05-05 11:32 14.89223 -173.71929 32009 ft 441 kts 245°
2026-05-05 11:32 14.86460 -173.77597 32008 ft 441 kts 245°
2026-05-05 11:33 14.83714 -173.83225 32014 ft 441 kts 245°
2026-05-05 11:33 14.80950 -173.88885 32009 ft 441 kts 245°
2026-05-05 11:34 14.78192 -173.94529 32011 ft 440 kts 245°
2026-05-05 11:34 14.75426 -174.00186 32009 ft 440 kts 245°
2026-05-05 11:35 14.72663 -174.05832 32009 ft 440 kts 245°
2026-05-05 11:35 14.69901 -174.11470 32002 ft 440 kts 245°
2026-05-05 11:36 14.67605 -174.16157 32010 ft 440 kts 245°
2026-05-05 11:36 14.64840 -174.21795 32007 ft 440 kts 245°
2026-05-05 11:37 14.62072 -174.27436 32007 ft 439 kts 245°
2026-05-05 11:37 14.59307 -174.33066 32006 ft 439 kts 245°
2026-05-05 11:38 14.56543 -174.38690 32004 ft 439 kts 245°
2026-05-05 11:38 14.53778 -174.44311 32003 ft 439 kts 245°
2026-05-05 11:39 14.51028 -174.49898 32003 ft 439 kts 245°
2026-05-05 11:39 14.48262 -174.55513 31996 ft 439 kts 245°
2026-05-05 11:40 14.45496 -174.61124 32002 ft 439 kts 245°
2026-05-05 11:40 14.42731 -174.66730 32003 ft 438 kts 245°
2026-05-05 11:41 14.39967 -174.72329 32008 ft 438 kts 245°
2026-05-05 11:41 14.37190 -174.77949 31996 ft 438 kts 245°
2026-05-05 11:42 14.34421 -174.83550 31997 ft 438 kts 245°
2026-05-05 11:42 14.31654 -174.89145 32001 ft 438 kts 245°
2026-05-05 11:43 14.28899 -174.94708 31993 ft 438 kts 245°
2026-05-05 11:43 14.26130 -175.00299 31995 ft 438 kts 245°
2026-05-05 11:44 14.23357 -175.05891 32000 ft 437 kts 245°
2026-05-05 11:44 14.20582 -175.11484 31999 ft 437 kts 245°
2026-05-05 11:45 14.17809 -175.17069 32005 ft 437 kts 245°
2026-05-05 11:45 14.15041 -175.22641 31987 ft 437 kts 245°
2026-05-05 11:46 14.12287 -175.28179 31992 ft 437 kts 245°
2026-05-05 11:46 14.09517 -175.33748 31993 ft 437 kts 245°
2026-05-05 11:47 14.06741 -175.39323 31996 ft 436 kts 245°
2026-05-05 11:47 14.03969 -175.44885 31996 ft 436 kts 246°
2026-05-05 11:48 13.99810 -175.53226 31993 ft 436 kts 246°
2026-05-05 11:48 13.97056 -175.58743 31988 ft 436 kts 246°
2026-05-05 11:49 13.94281 -175.64300 31993 ft 436 kts 246°
2026-05-05 11:49 13.91508 -175.69847 31993 ft 436 kts 246°
2026-05-05 11:50 13.88735 -175.75393 31991 ft 436 kts 246°
2026-05-05 11:50 13.85958 -175.80940 31987 ft 435 kts 246°
2026-05-05 11:51 13.83183 -175.86480 31991 ft 435 kts 246°
2026-05-05 11:51 13.80409 -175.92016 31988 ft 435 kts 246°
2026-05-05 11:52 13.77653 -175.97512 31988 ft 435 kts 246°
2026-05-05 11:52 13.74874 -176.03048 31985 ft 435 kts 246°
2026-05-05 11:53 13.72098 -176.08576 31986 ft 435 kts 246°
2026-05-05 11:53 13.69324 -176.14096 31984 ft 435 kts 246°
2026-05-05 11:54 13.66548 -176.19615 31985 ft 434 kts 246°
2026-05-05 11:54 13.63772 -176.25131 31983 ft 434 kts 246°
2026-05-05 11:55 13.60990 -176.30657 31987 ft 434 kts 246°
2026-05-05 11:55 13.58229 -176.36136 31983 ft 434 kts 246°
2026-05-05 11:56 13.55444 -176.41660 31984 ft 435 kts 246°
2026-05-05 11:56 13.52664 -176.47169 31987 ft 435 kts 246°
2026-05-05 11:57 13.49879 -176.52683 31984 ft 435 kts 246°
2026-05-05 11:57 13.47090 -176.58204 31985 ft 435 kts 246°
2026-05-05 11:58 13.44302 -176.63718 31981 ft 435 kts 246°
2026-05-05 11:58 13.41514 -176.69230 31982 ft 435 kts 246°
2026-05-05 11:59 13.38722 -176.74744 31982 ft 435 kts 246°
2026-05-05 11:59 13.35927 -176.80261 31981 ft 435 kts 246°
2026-05-05 12:00 13.33129 -176.85779 31980 ft 435 kts 246°
2026-05-05 12:00 13.30335 -176.91287 31982 ft 435 kts 246°
2026-05-05 12:01 13.27538 -176.96798 31982 ft 435 kts 246°
2026-05-05 12:01 13.24754 -177.02278 31979 ft 435 kts 246°
2026-05-05 12:02 13.21954 -177.07788 31981 ft 435 kts 246°
2026-05-05 12:02 13.19150 -177.13302 31977 ft 435 kts 246°
2026-05-05 12:03 13.16341 -177.18821 31978 ft 436 kts 246°
2026-05-05 12:03 13.13531 -177.24338 31978 ft 436 kts 246°
2026-05-05 12:04 13.10725 -177.29844 31976 ft 436 kts 246°
2026-05-05 12:04 13.07915 -177.35355 31977 ft 435 kts 246°
2026-05-05 12:05 13.05107 -177.40858 31976 ft 436 kts 246°
2026-05-05 12:05 13.02311 -177.46334 31976 ft 436 kts 245°
2026-05-05 12:06 12.99496 -177.51844 31975 ft 436 kts 245°
2026-05-05 12:06 12.96681 -177.57352 31975 ft 436 kts 245°
2026-05-05 12:07 12.93862 -177.62862 31971 ft 436 kts 246°
2026-05-05 12:07 12.91041 -177.68372 31971 ft 436 kts 245°
2026-05-05 12:08 12.88219 -177.73882 31972 ft 436 kts 245°
2026-05-05 12:08 12.85393 -177.79397 31973 ft 436 kts 245°
2026-05-05 12:09 12.82586 -177.84869 31975 ft 437 kts 245°
2026-05-05 12:09 12.79759 -177.90379 31977 ft 437 kts 245°
2026-05-05 12:10 12.76930 -177.95888 31970 ft 437 kts 245°
2026-05-05 12:10 12.74098 -178.01400 31973 ft 437 kts 245°
2026-05-05 12:11 12.71265 -178.06910 31972 ft 437 kts 245°
2026-05-05 12:11 12.68432 -178.12416 31972 ft 437 kts 245°
2026-05-05 12:12 12.65617 -178.17884 31973 ft 437 kts 245°
2026-05-05 12:12 12.62778 -178.23396 31967 ft 437 kts 245°
2026-05-05 12:13 12.59941 -178.28902 31967 ft 437 kts 245°
2026-05-05 12:13 12.57103 -178.34404 31967 ft 437 kts 245°
2026-05-05 12:14 12.54257 -178.39918 31966 ft 437 kts 245°
2026-05-05 12:14 12.51412 -178.45428 31966 ft 438 kts 245°
2026-05-05 12:15 12.48562 -178.50945 31966 ft 438 kts 245°
2026-05-05 12:15 12.45712 -178.56457 31963 ft 438 kts 245°
2026-05-05 12:16 12.42864 -178.61962 31962 ft 438 kts 245°
2026-05-05 12:16 12.40030 -178.67437 31963 ft 438 kts 245°
2026-05-05 12:17 12.37176 -178.72948 31964 ft 438 kts 245°
2026-05-05 12:17 12.34320 -178.78458 31963 ft 438 kts 245°
2026-05-05 12:18 12.31461 -178.83971 31962 ft 439 kts 245°
2026-05-05 12:18 12.28599 -178.89487 31962 ft 439 kts 245°
2026-05-05 12:19 12.25737 -178.94999 31966 ft 440 kts 245°
2026-05-05 12:19 12.22851 -179.00557 31969 ft 443 kts 245°
2026-05-05 12:20 12.19949 -179.06140 31962 ft 446 kts 245°
2026-05-05 12:20 12.17051 -179.11711 31961 ft 447 kts 245°
2026-05-05 12:21 12.14125 -179.17331 31961 ft 448 kts 245°
2026-05-05 12:21 12.11197 -179.22954 31958 ft 448 kts 245°
2026-05-05 12:22 12.08756 -179.27637 31958 ft 449 kts 245°
2026-05-05 12:22 12.05820 -179.33269 31957 ft 448 kts 245°
2026-05-05 12:23 12.02886 -179.38892 31955 ft 448 kts 245°
2026-05-05 12:23 11.99951 -179.44516 31957 ft 448 kts 245°
2026-05-05 12:24 11.97014 -179.50139 31958 ft 448 kts 245°
2026-05-05 12:24 11.94080 -179.55755 31959 ft 448 kts 245°
2026-05-05 12:25 11.91139 -179.61379 31959 ft 448 kts 245°
2026-05-05 12:25 11.88220 -179.66957 31957 ft 448 kts 245°
2026-05-05 12:26 11.85278 -179.72576 31956 ft 449 kts 245°
2026-05-05 12:26 11.82336 -179.78194 31957 ft 449 kts 245°
2026-05-05 12:27 11.79386 -179.83822 31955 ft 449 kts 245°
2026-05-05 12:27 11.76437 -179.89447 31955 ft 449 kts 245°
2026-05-05 12:28 11.73485 -179.95074 31954 ft 449 kts 245°
2026-05-05 12:28 11.70532 179.99309 31954 ft 450 kts 244°
2026-05-05 12:29 11.67470 179.93785 31950 ft 451 kts 243°
2026-05-05 12:29 11.64321 179.88243 31951 ft 451 kts 243°
2026-05-05 12:30 11.61179 179.82699 31947 ft 451 kts 243°
2026-05-05 12:30 11.58046 179.77142 31948 ft 451 kts 243°
2026-05-05 12:31 11.54914 179.71579 31950 ft 452 kts 243°
2026-05-05 12:31 11.51788 179.66026 31948 ft 452 kts 243°
2026-05-05 12:32 11.48655 179.60465 31948 ft 452 kts 243°
2026-05-05 12:32 11.45519 179.54903 31947 ft 452 kts 243°
2026-05-05 12:33 11.42382 179.49343 31944 ft 453 kts 243°
2026-05-05 12:33 11.39241 179.43778 31945 ft 453 kts 243°
2026-05-05 12:34 11.36117 179.38245 31945 ft 453 kts 243°
2026-05-05 12:34 11.32970 179.32675 31946 ft 454 kts 243°
2026-05-05 12:35 11.29817 179.27098 31945 ft 454 kts 243°
2026-05-05 12:35 11.26659 179.21516 31944 ft 454 kts 243°
2026-05-05 12:36 11.23497 179.15929 31946 ft 454 kts 243°
2026-05-05 12:36 11.20340 179.10354 31947 ft 455 kts 243°
2026-05-05 12:37 11.17178 179.04775 31943 ft 455 kts 243°
2026-05-05 12:37 11.14030 178.99221 31943 ft 455 kts 243°
2026-05-05 12:38 11.10864 178.93639 31942 ft 456 kts 243°
2026-05-05 12:38 11.07686 178.88040 31940 ft 456 kts 243°
2026-05-05 12:39 11.04508 178.82443 31943 ft 456 kts 243°
2026-05-05 12:39 11.01328 178.76847 31940 ft 456 kts 243°
2026-05-05 12:40 10.98147 178.71251 31939 ft 457 kts 243°
2026-05-05 12:40 10.94983 178.65687 31942 ft 457 kts 242°
2026-05-05 12:41 10.91798 178.60090 31943 ft 457 kts 242°
2026-05-05 12:41 10.88610 178.54491 31942 ft 457 kts 242°
2026-05-05 12:42 10.85417 178.48886 31941 ft 458 kts 242°
2026-05-05 12:42 10.82225 178.43286 31940 ft 458 kts 242°
2026-05-05 12:43 10.79026 178.37676 31937 ft 458 kts 242°
2026-05-05 12:43 10.75825 178.32066 31938 ft 458 kts 242°
2026-05-05 12:44 10.72645 178.26496 31940 ft 458 kts 242°
2026-05-05 12:44 10.69440 178.20885 31939 ft 459 kts 242°
2026-05-05 12:45 10.66233 178.15273 31936 ft 459 kts 242°
2026-05-05 12:45 10.63027 178.09666 31937 ft 459 kts 242°
2026-05-05 12:46 10.59817 178.04055 31936 ft 459 kts 242°
2026-05-05 12:46 10.56607 177.98445 31936 ft 459 kts 242°
2026-05-05 12:47 10.53395 177.92836 31937 ft 459 kts 242°
2026-05-05 12:47 10.50176 177.87218 31939 ft 460 kts 242°
2026-05-05 12:48 10.46956 177.81600 31934 ft 460 kts 242°
2026-05-05 12:48 10.43734 177.75983 31935 ft 460 kts 242°
2026-05-05 12:49 10.40510 177.70365 31938 ft 460 kts 242°
2026-05-05 12:49 10.37283 177.64744 31933 ft 461 kts 242°
2026-05-05 12:50 10.34053 177.59121 31934 ft 461 kts 242°
2026-05-05 12:50 10.30819 177.53493 31935 ft 461 kts 242°
2026-05-05 12:51 10.27587 177.47872 31931 ft 461 kts 242°
2026-05-05 12:51 10.24350 177.42246 31931 ft 461 kts 242°
2026-05-05 12:52 10.21114 177.36623 31929 ft 461 kts 242°
2026-05-05 12:52 10.17875 177.30999 31931 ft 461 kts 242°
2026-05-05 12:53 10.14650 177.25401 31932 ft 462 kts 242°
2026-05-05 12:53 10.11407 177.19774 31928 ft 462 kts 242°
2026-05-05 12:54 10.06538 177.11331 31928 ft 462 kts 242°
2026-05-05 12:55 10.03294 177.05708 31927 ft 462 kts 242°
2026-05-05 12:55 10.00049 177.00081 31926 ft 462 kts 242°
2026-05-05 12:56 9.97057 176.94324 31931 ft 461 kts 245°
2026-05-05 12:56 9.94197 176.88493 31927 ft 462 kts 245°
2026-05-05 12:57 9.91331 176.82665 31926 ft 462 kts 245°
2026-05-05 12:57 9.88452 176.76867 31926 ft 462 kts 245°
2026-05-05 12:58 9.85547 176.71050 31929 ft 462 kts 244°
2026-05-05 12:58 9.82637 176.65234 31927 ft 462 kts 244°
2026-05-05 12:59 9.79727 176.59417 31928 ft 463 kts 244°
2026-05-05 12:59 9.76815 176.53599 31925 ft 463 kts 244°
2026-05-05 13:00 9.72446 176.44875 31929 ft 463 kts 244°
2026-05-05 13:01 9.66611 176.33233 31927 ft 463 kts 244°
2026-05-05 13:01 9.63693 176.27415 31925 ft 463 kts 244°
2026-05-05 13:02 9.60762 176.21575 31927 ft 463 kts 244°
2026-05-05 13:02 9.57858 176.15792 31924 ft 463 kts 244°
2026-05-05 13:03 9.54934 176.09971 31925 ft 463 kts 244°
2026-05-05 13:03 9.52010 176.04154 31924 ft 463 kts 244°
2026-05-05 13:04 9.49083 175.98333 31925 ft 463 kts 244°
2026-05-05 13:04 9.46157 175.92517 31925 ft 463 kts 244°
2026-05-05 13:05 9.43230 175.86701 31927 ft 464 kts 244°
2026-05-05 13:05 9.40299 175.80882 31923 ft 464 kts 244°
2026-05-05 13:06 9.37844 175.76009 31921 ft 464 kts 244°
2026-05-05 13:06 9.34910 175.70189 31919 ft 464 kts 243°
2026-05-05 13:07 9.31974 175.64367 31921 ft 464 kts 243°
2026-05-05 13:07 9.29050 175.58572 31920 ft 465 kts 243°
2026-05-05 13:08 9.26108 175.52743 31918 ft 465 kts 243°
2026-05-05 13:08 9.23162 175.46911 31918 ft 465 kts 243°
2026-05-05 13:09 9.20212 175.41072 31921 ft 465 kts 243°
2026-05-05 13:09 9.17260 175.35233 31919 ft 466 kts 243°
2026-05-05 13:10 9.14313 175.29406 31917 ft 466 kts 243°
2026-05-05 13:10 9.11359 175.23570 31914 ft 466 kts 243°
2026-05-05 13:11 9.08398 175.17720 31914 ft 466 kts 243°
2026-05-05 13:11 9.05449 175.11898 31915 ft 466 kts 243°
2026-05-05 13:12 9.02506 175.06091 31911 ft 466 kts 243°
2026-05-05 13:12 8.99545 175.00250 31917 ft 467 kts 243°
2026-05-05 13:13 8.96581 174.94407 31914 ft 467 kts 243°
2026-05-05 13:13 8.93615 174.88562 31914 ft 467 kts 243°
2026-05-05 13:14 8.90649 174.82720 31910 ft 467 kts 243°
2026-05-05 13:14 8.87673 174.76863 31912 ft 467 kts 243°
2026-05-05 13:15 8.84702 174.71015 31910 ft 467 kts 243°
2026-05-05 13:15 8.81738 174.65187 31910 ft 468 kts 243°
2026-05-05 13:16 8.78757 174.59325 31907 ft 468 kts 243°
2026-05-05 13:16 8.75776 174.53468 31908 ft 468 kts 243°
2026-05-05 13:17 8.72814 174.47652 31907 ft 468 kts 243°
2026-05-05 13:17 8.69836 174.41804 31906 ft 468 kts 243°
2026-05-05 13:18 8.66847 174.35939 31907 ft 468 kts 243°
2026-05-05 13:18 8.63867 174.30094 31908 ft 468 kts 243°
2026-05-05 13:19 8.60883 174.24244 31902 ft 468 kts 243°
2026-05-05 13:19 8.57893 174.18384 31904 ft 468 kts 243°
2026-05-05 13:20 8.54916 174.12554 31902 ft 469 kts 243°
2026-05-05 13:20 8.51922 174.06693 31902 ft 469 kts 243°
2026-05-05 13:21 8.48932 174.00841 31903 ft 469 kts 242°
2026-05-05 13:21 8.45936 173.94980 31901 ft 469 kts 242°
2026-05-05 13:22 8.42943 173.89127 31898 ft 469 kts 242°
2026-05-05 13:22 8.39945 173.83269 31895 ft 470 kts 242°
2026-05-05 13:23 8.36944 173.77406 31901 ft 470 kts 242°
2026-05-05 13:23 8.33939 173.71539 31898 ft 470 kts 242°
2026-05-05 13:24 8.30951 173.65707 31897 ft 470 kts 242°
2026-05-05 13:24 8.27943 173.59839 31897 ft 471 kts 242°
2026-05-05 13:25 8.24932 173.53967 31895 ft 471 kts 242°
2026-05-05 13:25 8.21912 173.48081 31892 ft 471 kts 242°
2026-05-05 13:26 8.18899 173.42212 31898 ft 471 kts 242°
2026-05-05 13:26 8.15883 173.36336 31897 ft 472 kts 242°
2026-05-05 13:27 8.12851 173.30433 31894 ft 472 kts 242°
2026-05-05 13:27 8.09825 173.24545 31898 ft 473 kts 242°
2026-05-05 13:28 8.06816 173.18692 31892 ft 473 kts 241°
2026-05-05 13:28 8.03782 173.12793 31892 ft 474 kts 241°
2026-05-05 13:29 8.00739 173.06882 31893 ft 474 kts 241°
2026-05-05 13:29 7.97696 173.00969 31896 ft 475 kts 241°
2026-05-05 13:30 7.94661 172.95074 31893 ft 475 kts 241°
2026-05-05 13:30 7.91620 172.89173 31889 ft 475 kts 241°
2026-05-05 13:31 7.88627 172.83361 31877 ft 458 kts 241°
2026-05-05 13:31 7.85696 172.77677 31787 ft 456 kts 241°
2026-05-05 13:32 7.84235 172.74846 31384 ft 452 kts 241°
2026-05-05 13:32 7.82790 172.72046 30913 ft 447 kts 241°
2026-05-05 13:32 7.81363 172.69279 30475 ft 444 kts 241°
2026-05-05 13:32 7.79942 172.66526 29973 ft 441 kts 241°
2026-05-05 13:33 7.78531 172.63793 29432 ft 438 kts 241°
2026-05-05 13:33 7.77126 172.61072 28915 ft 434 kts 241°
2026-05-05 13:33 7.75739 172.58387 28414 ft 431 kts 241°
2026-05-05 13:33 7.74360 172.55716 27923 ft 427 kts 241°
2026-05-05 13:34 7.72996 172.53077 27442 ft 424 kts 241°
2026-05-05 13:34 7.71639 172.50451 26969 ft 421 kts 241°
2026-05-05 13:34 7.70288 172.47836 26495 ft 418 kts 241°
2026-05-05 13:34 7.68948 172.45244 26024 ft 416 kts 241°
2026-05-05 13:35 7.67613 172.42660 25531 ft 414 kts 241°
2026-05-05 13:35 7.66288 172.40097 25065 ft 412 kts 241°
2026-05-05 13:35 7.64980 172.37569 24592 ft 411 kts 242°
2026-05-05 13:35 7.63660 172.35017 24118 ft 410 kts 242°
2026-05-05 13:36 7.62342 172.32471 23651 ft 409 kts 242°
2026-05-05 13:36 7.61033 172.29941 23127 ft 408 kts 242°
2026-05-05 13:36 7.59721 172.27406 22626 ft 405 kts 242°
2026-05-05 13:36 7.58425 172.24902 22153 ft 402 kts 242°
2026-05-05 13:37 7.57132 172.22405 21694 ft 400 kts 241°
2026-05-05 13:37 7.55849 172.19926 21222 ft 397 kts 241°
2026-05-05 13:37 7.54571 172.17457 20778 ft 395 kts 241°
2026-05-05 13:37 7.53304 172.15010 20331 ft 393 kts 241°
2026-05-05 13:38 7.52043 172.12576 19872 ft 391 kts 241°
2026-05-05 13:38 7.50785 172.10150 19414 ft 390 kts 241°
2026-05-05 13:38 7.49530 172.07728 18966 ft 389 kts 240°
2026-05-05 13:38 7.48277 172.05311 18514 ft 388 kts 240°
2026-05-05 13:39 7.47030 172.02907 18048 ft 387 kts 241°
2026-05-05 13:39 7.45805 172.00544 17564 ft 385 kts 241°
2026-05-05 13:39 7.44561 171.98141 17120 ft 382 kts 241°
2026-05-05 13:39 7.43322 171.95751 16673 ft 380 kts 241°
2026-05-05 13:40 7.42100 171.93395 16240 ft 378 kts 240°
2026-05-05 13:40 7.40908 171.91099 15817 ft 376 kts 240°
2026-05-05 13:40 7.39698 171.88766 15389 ft 374 kts 240°
2026-05-05 13:40 7.38496 171.86448 14953 ft 372 kts 240°
2026-05-05 13:41 7.37298 171.84141 14518 ft 371 kts 240°
2026-05-05 13:41 7.36104 171.81841 14094 ft 370 kts 240°
2026-05-05 13:41 7.34920 171.79558 13657 ft 369 kts 241°
2026-05-05 13:41 7.33733 171.77272 13192 ft 367 kts 241°
2026-05-05 13:42 7.32550 171.74996 12767 ft 364 kts 240°
2026-05-05 13:42 7.31380 171.72740 12347 ft 362 kts 241°
2026-05-05 13:42 7.30361 171.70435 11803 ft 364 kts 248°
2026-05-05 13:42 7.29549 171.68022 11355 ft 363 kts 251°
2026-05-05 13:43 7.28810 171.65583 10956 ft 360 kts 251°
2026-05-05 13:43 7.28100 171.63198 10565 ft 350 kts 252°
2026-05-05 13:43 7.27407 171.60903 10427 ft 335 kts 251°
2026-05-05 13:43 7.26722 171.58688 10276 ft 326 kts 250°
2026-05-05 13:44 7.26277 171.57266 10188 ft 320 kts 250°
2026-05-05 13:44 7.25647 171.55269 10066 ft 312 kts 250°
2026-05-05 13:44 7.24994 171.53217 9931 ft 304 kts 250°
2026-05-05 13:44 7.24356 171.51223 9704 ft 300 kts 249°
2026-05-05 13:45 7.23717 171.49228 9406 ft 299 kts 250°
2026-05-05 13:45 7.23076 171.47233 9118 ft 297 kts 250°
2026-05-05 13:45 7.22433 171.45236 8827 ft 295 kts 250°
2026-05-05 13:45 7.21811 171.43302 8550 ft 293 kts 250°
2026-05-05 13:46 7.21175 171.41325 8269 ft 292 kts 250°
2026-05-05 13:46 7.20560 171.39414 7997 ft 290 kts 250°
2026-05-05 13:46 7.19938 171.37483 7722 ft 289 kts 250°
2026-05-05 13:46 7.19318 171.35558 7453 ft 288 kts 250°
2026-05-05 13:47 7.18703 171.33648 7182 ft 287 kts 250°
2026-05-05 13:47 7.18088 171.31738 6898 ft 286 kts 250°
2026-05-05 13:47 7.17474 171.29833 6636 ft 285 kts 250°
2026-05-05 13:47 7.16861 171.27929 6347 ft 285 kts 250°
2026-05-05 13:48 7.16246 171.26021 5977 ft 288 kts 250°
2026-05-05 13:48 7.15624 171.24092 5638 ft 290 kts 250°
2026-05-05 13:48 7.15212 171.22812 5445 ft 290 kts 250°
2026-05-05 13:48 7.14589 171.20880 5148 ft 289 kts 250°
2026-05-05 13:49 7.13969 171.18955 4865 ft 289 kts 250°
2026-05-05 13:49 7.13351 171.17038 4606 ft 287 kts 251°
2026-05-05 13:49 7.12739 171.15139 4369 ft 284 kts 250°
2026-05-05 13:49 7.11936 171.12649 4035 ft 281 kts 250°
2026-05-05 13:50 7.11528 171.11389 3910 ft 277 kts 249°
2026-05-05 13:50 7.10589 171.09784 3762 ft 265 kts 220°
2026-05-05 13:50 7.09090 171.08841 3659 ft 248 kts 192°
2026-05-05 13:50 7.07444 171.08565 3566 ft 234 kts 175°
2026-05-05 13:51 7.05884 171.08837 3452 ft 223 kts 160°
2026-05-05 13:51 7.04419 171.09262 3288 ft 216 kts 151°
2026-05-05 13:51 7.03316 171.10176 3086 ft 200 kts 119°
2026-05-05 13:51 7.02857 171.11432 2861 ft 186 kts 95°
2026-05-05 13:52 7.02975 171.12672 2681 ft 172 kts 77°
2026-05-05 13:52 7.03244 171.13807 2498 ft 164 kts 79°
2026-05-05 13:52 7.03497 171.14904 2286 ft 158 kts 78°
2026-05-05 13:52 7.03747 171.15964 2080 ft 154 kts 77°
2026-05-05 13:53 7.03996 171.16982 1877 ft 145 kts 77°
2026-05-05 13:53 7.04229 171.17934 1679 ft 138 kts 78°
2026-05-05 13:53 7.04455 171.18858 1492 ft 135 kts 78°
2026-05-05 13:53 7.04678 171.19767 1315 ft 133 kts 77°
2026-05-05 13:54 7.04904 171.20688 1140 ft 142 kts 78°
2026-05-05 13:54 7.05144 171.21667 954 ft 144 kts 78°
2026-05-05 13:54 7.05383 171.22640 729 ft 139 kts 78°
2026-05-05 13:54 7.05597 171.23516 557 ft 134 kts 77°
2026-05-05 13:55 7.05807 171.24367 390 ft 135 kts 76°
2026-05-05 13:55 7.06035 171.25309 251 ft 138 kts 72°
2026-05-05 13:55 7.06276 171.26241 47 ft 136 kts 77°
2026-05-05 13:55 7.06484 171.27119 2 ft 116 kts 77°
2026-05-05 13:56 7.06625 171.27707 2 ft 59 kts 75°
2026-05-05 13:56 7.06691 171.27981 0 ft 21 kts 75°
2026-05-05 13:56 7.06741 171.28084 1 ft 10 kts 16°
2026-05-05 13:56 7.06777 171.28081 2 ft 3 kts 360°
2026-05-05 13:57 7.06792 171.28087 3 ft 0 kts 31°
2026-05-05 13:57 7.06802 171.28094 3 ft 3 kts 33°
2026-05-05 13:58 7.06820 171.28119 3 ft 3 kts 76°
2026-05-05 13:58 7.06845 171.28160 4 ft 5 kts 39°
2026-05-05 13:58 7.06853 171.28192 4 ft 0 kts 116°
2026-05-05 13:59 7.06826 171.28219 4 ft 1 kts 187°
2026-05-05 13:59 7.06826 171.28189 4 ft 9 kts 278°
2026-05-05 14:00 7.06843 171.28171 4 ft 0 kts 356°
2026-05-05 14:00 7.06854 171.28181 4 ft 2 kts 68°
2026-05-05 14:00 7.06850 171.28197 4 ft 1 kts 113°
2026-05-05 14:00 7.06849 171.28180 4 ft 0 kts 289°